Flag for Germany Weather past 2 weeks in Norden, Lower Saxony, Germany

Now
43 °F

Fog.


Feels Like: 39 °F
Forecast: 40 / 48 °F
Wind: 7 mph from Northwest

Location: Norderney

Current Time: Mar 27, 2015 at 9:11:14 PM

Latest Report: Mar 27, 2015 at 8:00 PM


Visibility: 3 mi

Pressure: 30.10 "Hg

Humidity: 86%

Dew point: 39 °F

Location of NordenLocation

Historic Weather in Norden — Graph

°F

Norden temperature yesterday

Maximum temperature yesterday: 45 °F (at 1:00 PM)
Minimum temperature yesterday: 40 °F (at 2:00 AM)
Average temperature yesterday: 42 °F

Past Weeks' High & Low Weather Summary

 TemperatureHumidityPressure
High53 °F (Mar 16, 3:00 PM)97% (Mar 18, 7:00 AM)30.50 "Hg (Mar 18, 7:00 AM)
Low33 °F (Mar 13, 7:00 AM)48% (Mar 22, 5:00 PM)29.63 "Hg (Mar 26, 11:00 PM)
Average42 °F82%30.16 "Hg
* Reported Mar 12 8:00 PM — Mar 27 8:00 PM, Norden, Weather by CustomWeather, © 2015

Note: Actual official high and low records may vary slightly from our data, if they occured in-between our weather recording intervals... More about our weather records

Advertising

Norden weather history for previous 24 hours

 ConditionsComfort  
Time TempWeatherWind HumidityBarometerVisibility
8:00 PM
Fri, Mar 27
43 °FFog.7 mph86%30.10 "Hg3 mi
7:00 PM43 °FFog.8 mph87%30.08 "Hg3 mi
6:00 PM43 °FFog.9 mph84%30.04 "Hg2 mi
5:00 PM43 °FFog.10 mph84%30.01 "Hg2 mi
4:00 PM43 °FFog.13 mph87%29.98 "Hg2 mi
3:00 PM43 °FFog.14 mph93%29.94 "Hg1 mi
2:00 PM44 °FFog.9 mph91%29.91 "Hg4 mi
1:00 PM44 °FLow clouds.9 mph93%29.88 "Hg5 mi
12:00 PM43 °FOvercast.10 mph94%29.83 "Hg6 mi
11:00 AM43 °FLow clouds.7 mph95%29.80 "Hg7 mi
10:00 AM43 °FLow clouds.8 mph95%29.77 "Hg4 mi
9:00 AM44 °FDrizzle. Overcast.7 mph88%29.75 "Hg14 mi
8:00 AM42 °FOvercast.6 mph91%29.74 "Hg11 mi
7:00 AM42 °FOvercast.7 mph88%29.71 "Hg16 mi
6:00 AM42 °FOvercast.7 mph87%29.69 "Hg11 mi
5:00 AM42 °FOvercast.7 mph87%29.67 "Hg10 mi
4:00 AM42 °FOvercast.7 mph88%29.66 "Hg11 mi
3:00 AM42 °FOvercast.8 mph91%29.65 "Hg7 mi
2:00 AM42 °FLight freezing rain. Low clouds.9 mph94%29.64 "Hg3 mi
1:00 AM42 °FOvercast.7 mph94%29.63 "Hg2 mi
12:00 AM41 °FDrizzle. Low clouds.7 mph93%29.63 "Hg2 mi
11:00 PM
Thu, Mar 26
40 °FLow clouds.8 mph92%29.63 "Hg4 mi
10:00 PM40 °FDrizzle. Overcast.8 mph92%29.63 "Hg4 mi
9:00 PM40 °FLight rain. Overcast.8 mph89%29.65 "Hg4 mi
Weather by CustomWeather, © 2015

See weather overviewHow to use our weather pages